FW7772 Weather Reports


Display with metric or nautical units.
time (UTC)temp
F
wind
direction
speed
MPH
gust
MPH
rain 1hr
in
rain 24hr
in
rain mn
in
humidity
%
barometer
mb
20260903062830 43 300 3.0 4.0 0.00 0.00 0.00 94 1004.1
20260903062308 42 268 2.0 4.0 0.00 0.00 0.00 94 1004.0
20260903060831 41 276 1.0 3.0 0.00 0.00 0.00 93 1004.2
20260903055831 40 300 1.0 4.0 0.00 0.00 0.00 93 1004.1
20260903054830 39 285 3.0 5.0 0.00 0.00 0.00 93 1004.3
20260903053831 38 283 2.0 4.0 0.00 0.00 0.00 92 1004.2
20260903052831 38 284 3.0 5.0 0.00 0.00 0.00 92 1004.1
20260903051831 38 293 2.0 3.0 0.00 0.00 0.00 91 1004.1
20260903050830 38 300 0.0 3.0 0.00 0.00 0.00 91 1004.1
20260903050311 38 315 0.0 0.0 0.00 0.00 0.00 91 1004.1
20260903045752 38 315 0.0 0.0 0.00 0.00 0.00 91 1004.2
20260903043830 38 315 0.0 0.0 0.00 0.00 0.00 91 1004.1
20260903042829 38 315 0.0 0.0 0.00 0.00 0.00 91 1003.9
20260903041829 39 315 0.0 0.0 0.00 0.00 0.00 91 1004.0
20260903040829 39 310 0.0 0.0 0.00 0.00 0.00 91 1004.1
20260903035831 39 327 1.0 4.0 0.00 0.00 0.00 91 1004.1
20260903034830 40 327 2.0 4.0 0.00 0.00 0.00 92 1004.1
20260903034314 40 324 2.0 3.0 0.00 0.00 0.00 92 1004.0
20260903032829 40 324 2.0 4.0 0.00 0.00 0.00 92 1003.9
20260903031829 40 310 2.0 3.0 0.00 0.00 0.00 92 1003.9
20260903030829 41 287 2.0 3.0 0.00 0.00 0.00 92 1004.0
20260903025829 41 287 2.0 3.0 0.00 0.00 0.00 92 1003.9
20260903024829 41 278 2.0 3.0 0.00 0.00 0.00 92 1004.0
20260903023829 41 322 2.0 3.0 0.00 0.00 0.00 92 1004.1
20260903023314 41 314 2.0 4.0 0.00 0.00 0.00 92 1004.1
20260903022306 41 316 3.0 4.0 0.00 0.00 0.00 92 1004.1
20260903020829 40 305 4.0 5.0 0.00 0.00 0.00 92 1004.0
20260903020315 40 300 2.0 4.0 0.00 0.00 0.00 92 1004.0
20260903014830 40 318 3.0 4.0 0.00 0.00 0.00 92 1004.1
20260903013829 39 322 3.0 4.0 0.00 0.00 0.00 92 1004.1
20260903012830 39 310 2.0 3.0 0.00 0.00 0.00 91 1004.2
20260903011829 39 310 2.0 4.0 0.00 0.00 0.00 91 1004.4
20260903010829 39 305 3.0 7.0 0.00 0.00 0.00 91 1004.2
20260903010749 39 320 3.0 7.0 0.00 0.00 0.00 90 1004.2
20260903004830 39 314 2.0 4.0 0.00 0.00 0.00 90 1004.3
20260903003829 39 314 2.0 3.0 0.00 0.00 0.00 89 1004.2
20260903002829 39 270 3.0 4.0 0.00 0.00 0.00 89 1004.3
20260903001829 39 324 1.0 4.0 0.00 0.00 0.00 89 1004.4
20260903000830 40 248 0.0 3.0 0.00 0.00 0.00 89 1004.4
20260902235829 40 248 2.0 3.0 0.00 0.00 0.00 89 1004.4
20260902234833 40 295 0.0 2.0 0.00 0.00 0.00 89 1004.3
20260902233829 40 295 1.0 2.0 0.00 0.00 0.00 89 1004.4
20260902232828 40 295 2.0 3.0 0.00 0.00 0.00 88 1004.3
20260902231828 40 295 2.0 3.0 0.00 0.00 0.00 88 1004.5
20260902231307 41 265 1.0 3.0 0.00 0.00 0.00 87 1004.5
20260902230310 41 233 1.0 3.0 0.00 0.00 0.00 87 1004.4
20260902224828 41 233 1.0 3.0 0.00 0.00 0.00 87 1004.4
20260902224313 42 310 1.0 2.0 0.00 0.00 0.00 87 1004.4
20260902222829 42 310 1.0 3.0 0.00 0.00 0.00 87 1004.4
20260902221829 42 310 1.0 3.0 0.00 0.00 0.00 87 1004.4
20260902220829 43 310 1.0 3.0 0.00 0.00 0.00 87 1004.4
20260902215830 43 197 1.0 3.0 0.00 0.00 0.00 87 1004.4
20260902215318 43 197 1.0 2.0 0.00 0.00 0.00 86 1004.3
20260902213829 44 197 2.0 4.0 0.00 0.00 0.00 86 1004.3
20260902213310 44 179 1.0 3.0 0.00 0.00 0.00 85 1004.4
20260902211828 44 68 1.0 3.0 0.00 0.00 0.00 84 1004.6
20260902210829 45 168 1.0 3.0 0.00 0.00 0.00 83 1004.3
20260902210008 45 230 0.0 0.0 0.00 0.00 0.00 83 1004.4
20260902203829 46 231 2.0 3.0 0.00 0.00 0.00 82 1004.5
20260902202829 47 239 0.0 3.0 0.00 0.00 0.00 82 1004.4
20260902201829 47 261 0.0 0.0 0.00 0.00 0.00 82 1004.6
20260902200829 48 261 0.0 0.0 0.00 0.00 0.00 81 1004.6
20260902200308 49 261 0.0 0.0 0.00 0.00 0.00 80 1004.5
20260902194830 49 261 0.0 0.0 0.00 0.00 0.00 80 1004.6
20260902193828 50 261 0.0 0.0 0.00 0.00 0.00 79 1004.5
20260902193306 50 261 0.0 0.0 0.00 0.00 0.00 78 1004.5
20260902191828 51 261 1.0 3.0 0.00 0.00 0.00 76 1004.5
20260902190829 52 261 1.0 3.0 0.00 0.00 0.00 76 1004.4
20260902185830 53 261 2.0 3.0 0.00 0.00 0.00 76 1004.4
20260902184829 54 261 2.0 3.0 0.00 0.00 0.00 74 1004.5
20260902183829 55 261 2.0 4.0 0.00 0.00 0.00 72 1004.4
20260902182831 56 259 3.0 4.0 0.00 0.00 0.00 70 1004.3
20260902181829 57 262 2.0 4.0 0.00 0.00 0.00 68 1004.4
20260902180829 58 241 2.0 4.0 0.00 0.00 0.00 66 1004.3
20260902175828 60 257 2.0 5.0 0.00 0.00 0.00 63 1004.3
20260902174822 60 264 3.0 8.0 0.00 0.00 0.00 60 1004.2
20260902173820 60 243 3.0 7.0 0.00 0.00 0.00 59 1004.3
20260902173312 61 220 5.0 11.0 0.00 0.00 0.00 54 1004.2
20260902171817 61 220 6.0 12.0 0.00 0.00 0.00 54 1004.3
20260902170818 62 255 7.0 16.0 0.00 0.00 0.00 52 1004.2
20260902165818 62 278 5.0 12.0 0.00 0.00 0.00 56 1004.3
20260902164818 62 243 5.0 13.0 0.00 0.00 0.00 54 1004.2
20260902163820 63 227 5.0 9.0 0.00 0.00 0.00 55 1004.1
20260902162817 63 247 7.0 16.0 0.00 0.00 0.00 52 1004.1
20260902161816 63 257 6.0 14.0 0.00 0.00 0.00 54 1004.0
20260902160816 64 264 6.0 12.0 0.00 0.00 0.00 53 1004.1
20260902155816 64 268 8.0 16.0 0.00 0.00 0.00 51 1004.1
20260902154816 64 300 8.0 17.0 0.00 0.00 0.00 50 1004.1
20260902153816 65 212 10.0 19.0 0.00 0.00 0.00 51 1004.1
20260902152817 65 295 8.0 17.0 0.00 0.00 0.00 51 1004.0
20260902151816 66 230 7.0 18.0 0.00 0.00 0.00 49 1003.9
20260902151255 66 269 7.0 13.0 0.00 0.00 0.00 53 1003.9
20260902145813 65 256 6.0 12.0 0.00 0.00 0.00 53 1003.9
20260902144813 67 245 5.0 14.0 0.00 0.00 0.00 55 1003.8
20260902144255 65 266 5.0 10.0 0.00 0.00 0.00 57 1004.0
20260902142814 66 246 7.0 17.0 0.00 0.00 0.00 54 1004.1
20260902141814 66 300 9.0 15.0 0.00 0.00 0.00 54 1004.0
20260902140816 65 246 8.0 14.0 0.00 0.00 0.00 56 1004.1
20260902135814 65 290 8.0 14.0 0.00 0.00 0.00 58 1004.1
20260902134808 65 214 6.0 16.0 0.00 0.00 0.00 52 1004.1
20260902133808 65 200 4.0 15.0 0.00 0.00 0.00 53 1003.9
20260902132809 66 240 6.0 13.0 0.00 0.00 0.00 53 1004.0
20260902132256 67 272 5.0 14.0 0.00 0.00 0.00 51 1004.0
20260902130807 67 262 5.0 13.0 0.00 0.00 0.00 53 1004.0
20260902125807 67 267 7.0 14.0 0.00 0.00 0.00 52 1004.0
20260902124807 67 273 7.0 18.0 0.00 0.00 0.00 52 1004.0
20260902123808 67 227 8.0 16.0 0.00 0.00 0.00 53 1004.1
20260902123242 67 210 9.0 17.0 0.00 0.00 0.00 56 1004.2
20260902121805 67 282 7.0 13.0 0.00 0.00 0.00 55 1004.2
20260902120805 66 224 6.0 14.0 0.00 0.00 0.00 57 1004.2
20260902115806 67 184 7.0 16.0 0.00 0.00 0.00 58 1004.3
20260902114806 67 310 5.0 13.0 0.00 0.00 0.00 57 1004.4
20260902113803 64 354 5.0 15.0 0.00 0.00 0.00 66 1004.5
20260902112803 62 237 2.0 11.0 0.00 0.00 0.00 71 1004.6
20260902111803 62 131 1.0 3.0 0.00 0.00 0.00 76 1004.7
20260902110803 62 243 1.0 4.0 0.00 0.00 0.00 79 1004.9
20260902105804 61 110 4.0 9.0 0.00 0.00 0.00 80 1004.9
20260902104803 62 102 4.0 7.0 0.00 0.00 0.00 83 1005.1
20260902103804 62 101 3.0 6.0 0.00 0.00 0.00 83 1005.2
20260902102802 61 122 4.0 6.0 0.00 0.00 0.00 85 1005.2
20260902101801 60 126 3.0 6.0 0.00 0.00 0.00 86 1005.2
20260902100801 60 104 3.0 7.0 0.00 0.00 0.00 86 1005.2
20260902095802 59 89 3.0 6.0 0.00 0.00 0.00 86 1005.2
20260902094802 59 102 1.0 4.0 0.00 0.00 0.00 87 1005.3
20260902093804 59 79 3.0 5.0 0.00 0.00 0.00 86 1005.3
20260902092801 58 104 2.0 6.0 0.00 0.00 0.00 86 1005.3
20260902092243 58 102 1.0 4.0 0.00 0.00 0.00 87 1005.4
20260902090801 58 79 0.0 3.0 0.00 0.00 0.00 87 1005.4
20260902085801 58 111 1.0 4.0 0.00 0.00 0.00 88 1005.4
20260902084802 57 94 2.0 4.0 0.00 0.00 0.00 89 1005.5
20260902083802 58 104 2.0 5.0 0.00 0.00 0.00 87 1005.5
20260902082802 59 63 2.0 6.0 0.00 0.00 0.00 88 1005.6
20260902081806 57 111 3.0 6.0 0.00 0.00 0.00 90 1005.7
20260902080801 56 112 2.0 6.0 0.00 0.00 0.00 91 1005.7
20260902075801 56 107 0.0 5.0 0.00 0.00 0.00 91 1005.7
20260902074804 55 98 1.0 4.0 0.00 0.00 0.00 91 1005.7
20260902073802 55 99 0.0 4.0 0.00 0.00 0.00 92 1005.7
20260902072802 55 310 0.0 0.0 0.00 0.00 0.00 94 1005.7
20260902071754 53 310 0.0 0.0 0.00 0.00 0.00 94 1005.7
20260902070753 51 310 0.0 0.0 0.00 0.00 0.00 94 1005.7
20260902070717 51 310 0.0 0.0 0.00 0.00 0.00 94 1005.7
20260902064751 50 310 0.0 0.0 0.00 0.00 0.00 94 1005.8